Location: Munkebjergskolens Observatorium
(55.3864°N, 10.3987°E)
Time: 03:04:13
(UTC+02:00)

Oscar 19 - Pass Details

Date: 05 April 2023
Orbit: 773 x 789 km, 98.8° (Epoch: 07 June)

Event Time Altitude Azimuth Distance (km) Brightness Sun altitude
Rises 04:21:16 0° 24° (NNE) 3,277 15.1 -18.3°
Reaches altitude 10° 04:24:09 10° 40° (NE) 2,347 14.4 -18.0°
Maximum altitude 04:28:04 21° 89° (E) 1,689 13.0 -17.6°
Drops below altitude 10° 04:31:58 10° 139° (SE) 2,342 13.1 -17.2°
Sets 04:34:49 0° 155° (SSE) 3,268 13.7 -16.9°
